EW1382 Weather Reports


Display with metric or nautical units.
time (UTC)temp
F
wind
direction
speed
MPH
gust
MPH
rain 1hr
in
rain 24hr
in
rain mn
in
humidity
%
barometer
mb
20171212200320 27 281 8.0 19.0 0.00 0.00 0.00 75 999.1
20171212194823 28 301 10.0 19.0 0.00 0.00 0.00 74 999.1
20171212193316 28 269 5.0 14.0 0.00 0.00 0.00 74 999.0
20171212191821 28 284 9.0 16.0 0.00 0.00 0.00 73 998.8
20171212190333 29 275 7.0 15.0 0.00 0.00 0.00 76 998.6
20171212184818 29 315 8.0 15.0 0.00 0.00 0.00 74 998.7
20171212183325 29 288 6.0 16.0 0.00 0.00 0.00 77 998.6
20171212181833 29 295 4.0 12.0 0.00 0.00 0.00 82 998.3
20171212180321 29 259 7.0 18.0 0.00 0.00 0.00 82 998.3
20171212174829 29 288 9.0 19.0 0.00 0.00 0.00 82 998.5
20171212173319 30 288 8.0 21.0 0.00 0.00 0.00 86 998.0
20171212171823 31 295 7.0 17.0 0.00 0.00 0.00 88 997.9
20171212170315 32 300 4.0 13.0 0.00 0.00 0.00 89 997.8
20171212164820 32 271 5.0 9.0 0.00 0.00 0.00 91 997.7
20171212163331 33 239 2.0 8.0 0.00 0.00 0.00 91 997.5
20171212161816 33 273 5.0 9.0 0.00 0.00 0.00 92 997.6
20171212160328 33 261 1.0 8.0 0.00 0.00 0.00 93 997.5
20171212154832 33 272 4.0 8.0 0.00 0.00 0.00 93 997.5
20171212153321 33 305 2.0 5.0 0.00 0.00 0.00 94 997.5
20171212151830 32 269 0.0 0.0 0.00 0.00 0.00 94 997.5
20171212150318 33 206 0.0 0.0 0.00 0.00 0.00 94 997.5
20171212144827 33 246 0.0 0.0 0.00 0.00 0.00 94 997.4
20171212143334 32 184 0.0 0.0 0.00 0.00 0.00 94 997.6
20171212141817 31 166 0.0 0.0 0.00 0.00 0.00 95 997.6
20171212140328 32 162 0.0 0.0 0.00 0.00 0.00 95 997.6
20171212134832 31 198 0.0 0.0 0.00 0.00 0.00 95 997.5
20171212133325 31 151 0.0 0.0 0.00 0.00 0.00 95 997.7
20171212131830 31 151 0.0 0.0 0.00 0.00 0.00 95 997.8
20171212130323 30 151 0.0 0.0 0.00 0.00 0.00 95 997.9
20171212124828 30 151 0.0 0.0 0.00 0.00 0.00 95 998.0
20171212123317 30 190 0.0 0.0 0.00 0.00 0.00 95 998.1
20171212121825 30 165 0.0 0.0 0.00 0.00 0.00 95 998.3
20171212120333 30 165 0.0 0.0 0.00 0.00 0.00 95 998.3
20171212114821 30 162 0.0 0.0 0.00 0.00 0.00 95 998.4
20171212113330 30 133 0.0 0.0 0.00 0.00 0.00 95 998.4
20171212111916 30 131 0.0 1.0 0.00 0.00 0.00 95 998.5
20171212110324 30 131 1.0 2.0 0.00 0.00 0.00 94 998.6
20171212104830 30 139 1.0 2.0 0.00 0.00 0.00 94 998.6
20171212103321 30 130 1.0 3.0 0.00 0.00 0.00 94 998.8
20171212101826 30 129 3.0 4.0 0.00 0.00 0.00 94 998.8
20171212100337 30 134 2.0 5.0 0.00 0.00 0.00 94 999.2
20171212094824 30 129 2.0 4.0 0.00 0.00 0.00 94 999.5
20171212093333 30 133 3.0 5.0 0.00 0.00 0.00 94 999.9
20171212091829 30 169 2.0 5.0 0.00 0.00 0.00 94 1000.3
20171212090327 30 133 2.0 5.0 0.00 0.00 0.00 94 1000.5
20171212084831 29 145 3.0 6.0 0.00 0.00 0.00 94 1000.7
20171212083324 29 122 4.0 7.0 0.00 0.00 0.00 94 1001.2
20171212081829 29 131 4.0 7.0 0.00 0.00 0.00 94 1001.5
20171212080322 29 154 4.0 7.0 0.00 0.00 0.00 94 1001.9
20171212074827 29 136 4.0 6.0 0.00 0.00 0.00 94 1002.2
20171212073317 29 113 4.0 8.0 0.00 0.00 0.00 94 1002.8
20171212071825 29 133 5.0 7.0 0.00 0.00 0.00 94 1003.2
20171212070334 29 120 3.0 6.0 0.00 0.00 0.00 94 1003.5
20171212064823 29 122 3.0 6.0 0.00 0.00 0.00 94 1004.0
20171212063332 29 139 4.0 8.0 0.00 0.00 0.00 94 1004.3
20171212061821 29 129 6.0 9.0 0.00 0.00 0.00 94 1004.7
20171212060330 29 131 4.0 10.0 0.00 0.00 0.00 94 1004.8
20171212054815 29 130 4.0 8.0 0.00 0.00 0.00 93 1005.2
20171212053328 29 141 5.0 9.0 0.00 0.00 0.00 94 1005.6
20171212051833 28 153 4.0 6.0 0.00 0.00 0.00 93 1005.9
20171212050324 28 112 2.0 6.0 0.00 0.00 0.00 93 1006.3
20171212044829 27 128 4.0 5.0 0.00 0.00 0.00 93 1006.5
20171212043317 27 120 3.0 7.0 0.00 0.00 0.00 92 1006.8
20171212041826 27 126 4.0 7.0 0.00 0.00 0.00 92 1007.1
20171212040315 26 118 3.0 6.0 0.00 0.00 0.00 92 1007.5
20171212034825 26 117 3.0 5.0 0.00 0.00 0.00 91 1007.7
20171212033333 25 127 4.0 5.0 0.00 0.00 0.00 90 1008.2
20171212031820 25 106 3.0 6.0 0.00 0.00 0.00 89 1008.4
20171212030329 25 123 3.0 6.0 0.00 0.00 0.00 89 1008.7
20171212024833 25 113 3.0 6.0 0.00 0.00 0.00 89 1008.8
20171212023327 24 113 2.0 4.0 0.00 0.00 0.00 89 1009.0
20171212021832 24 113 4.0 5.0 0.00 0.00 0.00 89 1009.1
20171212020325 24 125 3.0 6.0 0.00 0.00 0.00 89 1009.5
20171212014828 24 124 3.0 4.0 0.00 0.00 0.00 89 1009.8
20171212013314 24 139 2.0 4.0 0.00 0.00 0.00 88 1010.1
20171212011823 24 120 2.0 3.0 0.00 0.00 0.00 88 1010.5
20171212010331 24 121 3.0 6.0 0.00 0.00 0.00 88 1010.6
20171212004820 23 126 3.0 6.0 0.00 0.00 0.00 88 1010.7
20171212003330 23 134 3.0 4.0 0.00 0.00 0.00 89 1011.1
20171212001818 23 99 2.0 4.0 0.00 0.00 0.00 89 1011.4
20171212000327 23 98 2.0 4.0 0.00 0.00 0.00 88 1011.6
20171211234831 23 121 4.0 6.0 0.00 0.00 0.00 88 1011.8
20171211233323 23 128 3.0 5.0 0.00 0.00 0.00 88 1012.0
20171211231828 23 99 4.0 6.0 0.00 0.00 0.00 88 1012.3
20171211230321 23 85 2.0 4.0 0.00 0.00 0.00 88 1012.8
20171211224824 23 94 1.0 5.0 0.00 0.00 0.00 87 1013.0
20171211223333 23 75 3.0 5.0 0.00 0.00 0.00 87 1013.2
20171211221821 23 110 2.0 4.0 0.00 0.00 0.00 87 1013.4
20171211220330 23 88 2.0 4.0 0.00 0.00 0.00 87 1013.7
20171211214819 23 64 4.0 6.0 0.00 0.00 0.00 87 1013.6
20171211213327 23 73 5.0 6.0 0.00 0.00 0.00 87 1013.4
20171211211816 23 82 3.0 4.0 0.00 0.00 0.00 87 1013.9
20171211210325 23 80 4.0 8.0 0.00 0.00 0.00 87 1014.0
20171211204830 23 72 4.0 8.0 0.00 0.00 0.00 87 1014.3
20171211203322 23 82 2.0 6.0 0.00 0.00 0.00 87 1014.7
20171211201827 24 37 6.0 8.0 0.00 0.00 0.00 86 1014.7